SCP
0 0 0 0 0 0 0 0 -0 -0 -0 -0 -0 -0 -0 -0 -0 -0 -0 -0 -0 -0 -0 -0 -0 -0 -0 -0 -0 -0 -0 -0 -0 -0 -0 -0 -0 -0 -0 0 0 0 0
0 0 0 0 -0 -0 -0 -0 -0 -0 -0 -0 -0 -0 -0 -0 -0 -0 -0 -0 -0 -0 -0 -0 0 -0 -0 -0 -0 -0 -0 -0 0 0 0 -0 0 -0 0 0 -0 -0 0
0 0 0 0 0 0 0 0 0 -0 -0 -0 -0 -0 -0 -0 -0 -0 0 0 0 0 0 0 0 0 0 0 0 0 0 0 0 0 0 -0 0 0 0 0 -0 -0 -0
0 0 0 0 0 0 0 0 0 0 0 0 0 0 0 0 0 0 0 0 0 0 0 0 0 0 0 0 0 0 0 0 0 0 0 0 -0 0 -0 -0 -0 -0 -0
0 0 0 0 0 0 0 0 0 0 0 0 0 0 0 0 0 0 0 0 0 0 0 0 0 0 0 0 0 0 0 0 0 0 0 0 0 0 0 0 0 -0 -0
0 0 0 0 0 0 0 0 0 0 0 0 0 0 0 0 0 0 0 0 0 0 0 0 0 0 0 0 0 0 0 0 0 0 0 0 0 0 0 0 0 0 0
0 0 0 0 0 0 0 0 0 0 0 0 0 0 0 1 1 0 0 0 0 0 0 0 0 0 0 0 0 0 0 0 0 0 0 0 0 0 0 0 0 0 0
0 0 0 0 0 0 0 0 0 0 0 0 0 0 0 1 1 1 1 0 0 0 0 0 0 0 0 0 0 0 0 0 0 0 0 0 0 0 0 0 0 0 0
0 0 0 0 0 0 0 0 0 0 0 0 0 0 0 0 0 1 1 1 1 0 0 0 0 0 0 0 0 0 0 0 0 0 0 0 0 0 0 0 0 0 0
0 0 0 0 0 0 0 0 0 0 0 0 0 0 0 0 0 0 0 0 0 1 0 0 0 0 0 0 0 0 0 0 0 0 0 0 0 0 0 0 0 0 0
0 0 0 0 0 0 0 0 0 0 0 0 0 1 1 1 1 1 0 0 0 0 0 0 0 0 0 0 0 0 0 0 0 0 0 0 0 0 0 0 0 0 0
0 0 0 0 0 0 0 0 0 0 0 0 0 0 0 0 1 1 1 1 1 0 0 0 0 0 0 0 0 0 0 0 0 0 0 0 -0 0 0 0 0 0 0
0 0 0 0 -0 0 0 0 0 0 0 0 0 0 0 0 1 1 1 1 1 1 1 0 1 1 0 0 0 1 0 0 0 0 0 0 0 -0 0 0 0 0 0
0 0 0 0 0 0 -0 -0 -0 0 0 0 0 0 0 0 0 0 0 1 0 0 0 1 1 1 0 0 0 0 0 0 0 0 0 0 0 0 0 0 0 0 0
0 0 0 0 0 0 0 -0 -0 -0 -0 0 0 0 0 0 0 0 0 1 0 0 0 0 1 0 0 0 0 0 0 0 0 0 0 0 0 0 0 0 0 0 0
0 0 -0 -0 -0 -0 -0 -0 -0 -0 0 0 0 0 0 0 0 0 0 0 1 1 1 -0 -0 0 0 1 0 0 0 0 -0 0 0 0 0 0 0 0 0 0 0
-0 -0 -0 -0 -0 -0 -0 -0 -0 -0 -0 0 0 0 0 0 0 0 0 0 0 0 0 1 1 1 1 1 0 0 1 0 -0 -0 0 0 0 0 0 0 0 0 0
-0 -0 -0 -0 -0 -0 -0 -0 -0 -0 -0 -0 -0 0 0 0 0 0 0 0 0 0 0 0 0 1 0 0 0 -0 0 1 0 0 0 0 0 0 0 0 0 0 0
-0 -0 -0 -0 -0 -0 -0 -0 -0 -0 -0 -0 -0 -0 0 0 0 0 0 0 0 0 0 0 0 0 0 0 0 0 1 1 0 0 -0 0 0 0 0 0 0 0 0
-0 -0 -0 -0 -0 -0 -0 -0 -0 -0 -0 -0 -0 -0 0 0 0 0 0 0 0 0 0 0 0 0 0 0 0 1 0 0 0 1 1 0 0 0 0 0 0 0 0
-0 -0 -0 0 0 0 0 -0 -0 -0 -0 -0 -0 0 0 -0 -0 -0 0 0 0 0 0 0 0 0 0 0 0 -0 0 0 1 1 1 0 0 0 0 0 0 0 0
-0 -0 0 0 0 0 0 0 0 0 -0 -0 -0 -0 0 -0 -0 0 0 0 -0 -0 0 0 0 0 0 0 0 0 0 0 1 1 0 1 0 0 0 0 0 0 0
-0 -0 0 0 0 0 0 0 0 -0 -0 -0 -0 -0 -0 -0 -0 0 0 0 0 -0 0 0 0 0 0 0 0 0 0 1 0 0 0 1 0 1 1 1 0 0 0
0 0 0 0 0 0 0 0 0 -0 -0 -0 -0 -0 -0 -0 -0 0 0 0 0 0 0 0 0 0 0 0 0 0 0 0 1 1 1 0 0 0 0 1 1 0 0
0 0 0 0 0 0 0 0 -0 -0 -0 -0 -0 0 -0 -0 -0 0 0 0 0 0 0 0 0 0 0 0 0 0 0 -0 0 0 0 -0 0 0 0 0 0 0 0
0 0 0 0 0 0 -0 0 0 -0 -0 -0 -0 -0 -0 -0 0 0 0 0 0 0 0 0 0 0 0 0 0 0 0 0 0 0 0 0 0 0 1 1 0 0 0
Wind_Speed_500mb
13 19 24 24 25 22 18 20 22 27 27 25 23 20 16 10 9 8 6 8 10 13 15 17 24 23 21 19 14 16 15 15 12 15 17 17 17 18 19 20 21 22 22
8 17 23 23 23 24 20 19 21 24 29 27 24 21 17 14 12 13 11 9 10 12 13 15 19 22 21 19 16 16 16 17 15 16 18 20 21 20 18 18 18 20 21
2 12 19 20 18 17 13 12 15 20 24 27 27 24 20 18 17 16 13 12 11 11 13 16 18 20 20 19 18 18 17 18 18 18 20 20 20 22 21 18 17 17 19
6 7 17 18 18 17 15 14 16 19 20 22 23 22 20 20 19 16 14 14 13 14 15 17 18 19 20 19 18 18 19 20 21 21 22 21 20 22 20 18 18 17 17
4 5 15 19 19 20 18 17 18 20 20 20 20 20 19 19 19 18 17 17 18 18 18 19 20 21 21 21 21 21 21 22 22 22 22 21 20 20 18 17 18 18 18
3 6 13 16 20 21 21 20 18 18 18 19 20 20 20 21 22 21 22 22 22 23 23 23 23 23 24 25 25 24 25 26 25 25 23 22 21 20 19 17 17 17 18
6 4 11 15 19 21 23 23 22 21 20 21 23 25 26 26 26 27 27 28 29 29 29 29 29 28 28 29 29 29 30 31 32 31 29 25 24 23 22 22 21 20 19
11 2 10 16 21 23 25 27 27 27 27 27 28 29 31 33 35 35 35 35 35 36 35 35 35 34 34 35 35 35 36 37 38 38 36 33 31 29 27 25 25 24 21
14 8 8 11 17 24 27 30 33 35 35 36 36 36 37 36 39 42 42 44 44 45 44 42 42 41 41 41 42 43 43 45 47 47 44 43 38 35 31 34 33 31 28
28 26 23 17 12 14 21 27 32 38 41 44 45 45 46 47 47 46 46 50 53 53 55 54 52 50 49 49 49 51 51 53 58 59 57 55 48 44 41 36 38 39 36
62 63 50 36 24 20 19 22 27 33 39 44 49 51 55 54 55 56 59 54 53 55 60 64 63 62 60 58 58 57 58 63 66 69 67 64 55 54 52 47 45 42 44
81 80 77 71 65 57 53 43 32 29 32 37 42 46 52 57 56 57 60 65 85 71 62 67 69 69 70 71 69 66 67 68 73 76 77 73 65 61 60 58 56 53 48
73 73 72 70 67 64 61 59 56 52 47 40 34 35 49 60 65 68 71 73 81 84 90 91 82 77 74 76 75 74 74 73 77 81 81 81 73 69 69 67 66 65 61
71 70 65 63 60 59 56 54 51 49 49 49 48 40 37 37 44 58 76 83 81 87 90 74 76 77 82 80 78 77 78 79 81 84 86 86 82 75 73 74 73 71 69
65 62 61 59 59 57 54 53 52 52 51 50 49 48 44 37 38 40 42 44 65 81 93 94 88 84 69 71 73 76 76 77 82 86 89 88 87 82 78 78 78 77 75
63 63 62 64 62 61 62 62 60 57 53 52 50 48 47 49 45 43 40 39 45 47 66 86 95 86 89 98 100 99 86 78 81 86 91 93 93 88 83 81 83 83 81
66 64 66 63 63 65 67 71 67 63 61 59 58 54 46 46 49 51 49 44 42 45 44 50 60 67 91 99 98 86 105 94 84 85 89 95 94 98 90 88 86 87 87
59 58 56 56 59 61 66 69 67 67 66 65 62 60 62 55 49 48 49 52 51 54 60 61 63 72 82 91 86 87 90 118 103 101 91 81 93 97 99 96 88 86 90
47 43 44 47 51 56 59 62 62 68 67 64 63 65 66 64 61 57 53 55 61 63 55 51 59 46 67 88 91 87 86 85 90 96 92 74 77 92 94 102 100 90 86
39 39 43 48 53 56 59 59 62 67 70 69 68 64 63 63 60 59 60 59 63 66 64 60 62 71 71 62 65 81 90 79 80 96 87 82 76 75 86 93 99 101 91
38 40 42 43 49 54 60 66 68 70 64 59 59 66 70 67 62 61 58 58 65 65 65 63 65 65 81 76 80 72 86 80 82 95 89 95 79 70 72 82 88 91 91
43 42 43 48 56 61 62 62 62 64 62 56 53 58 66 74 63 53 53 58 62 63 62 62 62 63 66 63 67 53 68 70 72 81 72 75 70 71 69 71 82 84 82
51 52 53 53 53 55 59 63 68 70 69 71 72 68 63 63 62 57 53 50 53 59 60 62 61 52 60 64 55 39 28 49 56 49 51 60 57 61 70 72 72 82 82
51 45 45 48 53 58 65 71 75 81 76 73 72 69 60 61 56 57 59 56 52 50 55 57 57 53 46 57 61 63 50 61 26 34 36 49 58 80 71 68 66 65 64
51 55 59 60 59 60 68 73 76 75 67 67 69 69 69 64 60 56 57 56 52 51 54 52 55 47 41 42 45 52 65 69 79 59 49 60 48 65 64 68 82 68 58
55 56 56 57 62 70 74 70 73 74 70 69 69 70 69 67 66 62 58 54 50 53 52 50 47 37 33 30 33 30 28 28 38 26 37 65 75 70 52 78 79 76 72
Wind_Direction_500mb
194 188 186 184 183 186 188 190 197 196 190 188 190 194 200 209 200 216 222 189 180 184 186 183 185 186 191 196 206 191 191 194 189 171 162 159 154 153 150 147 148 146 148
193 188 184 189 188 189 192 194 206 209 208 210 215 221 225 220 223 233 225 206 200 197 196 195 195 203 208 215 217 211 202 195 192 175 166 164 160 158 157 158 155 159 162
225 191 185 193 201 201 210 216 226 225 222 221 225 231 232 229 230 230 222 217 217 216 214 214 217 219 222 221 223 222 210 199 192 182 174 169 169 164 164 169 170 169 166
359 204 190 191 202 208 215 224 236 239 235 232 230 229 228 229 233 234 236 238 237 233 229 228 229 230 226 224 221 217 211 206 196 186 178 172 169 166 163 167 171 178 179
5 212 201 195 204 215 226 236 242 246 245 240 235 234 234 236 239 244 250 253 252 249 243 240 239 238 232 227 221 215 210 204 200 189 182 178 172 171 167 164 169 177 182
2 216 211 212 212 220 228 240 252 267 267 259 251 248 252 257 260 263 265 264 262 260 258 255 250 247 241 234 228 221 213 207 200 200 198 193 183 174 169 169 170 174 181
3 217 230 240 235 233 236 242 253 263 269 272 271 267 264 263 265 268 271 272 270 268 267 266 264 259 254 246 238 233 227 219 216 216 216 216 207 200 194 190 184 180 179
43 338 274 262 256 252 249 250 254 258 264 270 273 272 273 272 270 270 270 270 273 273 271 269 267 265 262 260 252 244 237 232 230 230 232 231 228 222 220 212 201 197 193
42 4 310 299 297 286 281 274 267 265 266 267 269 272 275 274 275 275 273 273 273 274 273 271 269 267 263 260 258 254 248 243 242 241 240 240 237 234 233 229 223 216 210
33 19 13 358 320 283 270 270 270 269 269 270 272 273 274 273 277 279 280 282 282 279 277 274 272 268 266 262 259 257 254 251 249 249 247 244 241 239 238 238 236 232 226
51 48 42 34 17 357 334 309 292 283 277 273 272 274 274 275 278 279 284 286 282 280 283 282 279 275 270 266 261 258 257 254 253 253 251 250 247 245 242 240 241 240 238
53 51 49 49 49 46 42 33 11 336 314 296 285 279 279 278 279 272 269 287 287 282 278 282 279 278 277 272 268 263 259 258 259 258 258 255 251 249 248 246 244 245 244
55 51 48 45 44 43 42 42 40 34 28 16 353 313 286 280 280 277 279 277 271 267 276 276 279 278 275 276 274 271 268 266 263 264 261 261 257 253 253 250 248 248 246
47 44 40 36 33 30 26 23 18 14 10 7 5 359 347 330 305 286 280 272 268 264 269 273 267 271 272 270 270 269 268 267 267 266 266 265 262 258 255 254 252 250 249
38 33 30 26 24 20 16 11 7 4 1 357 352 347 341 335 331 309 291 295 276 266 266 271 274 278 272 268 268 269 268 269 270 268 268 264 265 262 258 256 255 253 251
30 30 28 27 24 20 17 12 7 3 358 351 346 342 333 325 320 310 303 290 286 286 272 274 274 275 284 271 272 269 266 269 278 271 268 267 266 262 260 258 256 254 251
25 24 23 23 20 15 14 12 11 8 3 357 351 346 334 322 320 314 305 298 288 272 274 278 277 269 258 268 269 266 265 267 273 283 270 266 265 267 261 256 254 254 253
22 20 17 15 12 11 8 6 4 1 356 353 347 341 335 334 325 316 311 303 289 272 267 261 269 281 255 264 263 269 261 264 270 269 274 265 260 261 264 261 255 252 251
12 11 8 6 4 1 2 0 359 355 353 351 347 344 336 332 330 326 321 314 307 301 295 275 263 266 269 268 272 270 257 258 262 262 268 272 265 258 259 260 258 252 250
3 0 357 354 353 353 353 353 351 352 349 347 345 344 342 334 331 328 325 320 318 311 303 296 284 269 263 262 277 258 259 267 264 256 254 271 272 265 255 252 255 253 248
354 351 346 345 348 350 351 353 355 354 351 347 345 342 341 344 334 328 325 323 322 319 311 307 303 298 275 267 268 280 270 268 260 256 252 257 271 267 263 255 250 250 249
347 342 344 348 349 348 350 352 352 350 347 346 345 344 338 336 340 328 324 327 328 322 312 304 299 299 291 278 276 276 273 265 259 254 253 253 265 264 263 267 256 247 246
346 346 345 345 343 344 348 351 350 348 346 344 344 345 344 342 344 339 327 325 325 321 314 306 301 298 296 282 272 261 277 246 268 258 251 252 260 260 266 268 262 248 240
348 338 337 342 346 353 355 354 352 352 350 349 348 350 351 355 350 345 340 335 329 324 319 316 307 297 300 293 278 265 249 259 276 247 233 249 257 260 257 262 262 256 246
341 343 349 354 356 358 355 353 351 353 353 353 352 353 357 357 355 351 345 340 335 331 326 319 313 306 298 293 291 286 275 270 253 276 262 268 264 268 250 258 263 253 257
358 351 356 360 357 353 353 355 357 357 356 358 358 359 358 358 357 357 353 350 346 341 339 332 324 315 309 302 299 298 292 285 268 284 263 249 237 241 252 251 258 265 265
Wind_Speed_850mb
13 19 24 24 25 22 18 20 22 27 27 25 23 20 16 10 9 8 6 8 10 13 15 17 24 23 21 19 14 16 15 15 12 15 17 17 17 18 19 20 21 22 22
8 17 23 23 23 24 20 19 21 24 29 27 24 21 17 14 12 13 11 9 10 12 13 15 19 22 21 19 16 16 16 17 15 16 18 20 21 20 18 18 18 20 21
2 12 19 20 18 17 13 12 15 20 24 27 27 24 20 18 17 16 13 12 11 11 13 16 18 20 20 19 18 18 17 18 18 18 20 20 20 22 21 18 17 17 19
6 7 17 18 18 17 15 14 16 19 20 22 23 22 20 20 19 16 14 14 13 14 15 17 18 19 20 19 18 18 19 20 21 21 22 21 20 22 20 18 18 17 17
4 5 15 19 19 20 18 17 18 20 20 20 20 20 19 19 19 18 17 17 18 18 18 19 20 21 21 21 21 21 21 22 22 22 22 21 20 20 18 17 18 18 18
3 6 13 16 20 21 21 20 18 18 18 19 20 20 20 21 22 21 22 22 22 23 23 23 23 23 24 25 25 24 25 26 25 25 23 22 21 20 19 17 17 17 18
6 4 11 15 19 21 23 23 22 21 20 21 23 25 26 26 26 27 27 28 29 29 29 29 29 28 28 29 29 29 30 31 32 31 29 25 24 23 22 22 21 20 19
11 2 10 16 21 23 25 27 27 27 27 27 28 29 31 33 35 35 35 35 35 36 35 35 35 34 34 35 35 35 36 37 38 38 36 33 31 29 27 25 25 24 21
14 8 8 11 17 24 27 30 33 35 35 36 36 36 37 36 39 42 42 44 44 45 44 42 42 41 41 41 42 43 43 45 47 47 44 43 38 35 31 34 33 31 28
28 26 23 17 12 14 21 27 32 38 41 44 45 45 46 47 47 46 46 50 53 53 55 54 52 50 49 49 49 51 51 53 58 59 57 55 48 44 41 36 38 39 36
62 63 50 36 24 20 19 22 27 33 39 44 49 51 55 54 55 56 59 54 53 55 60 64 63 62 60 58 58 57 58 63 66 69 67 64 55 54 52 47 45 42 44
81 80 77 71 65 57 53 43 32 29 32 37 42 46 52 57 56 57 60 65 85 71 62 67 69 69 70 71 69 66 67 68 73 76 77 73 65 61 60 58 56 53 48
73 73 72 70 67 64 61 59 56 52 47 40 34 35 49 60 65 68 71 73 81 84 90 91 82 77 74 76 75 74 74 73 77 81 81 81 73 69 69 67 66 65 61
71 70 65 63 60 59 56 54 51 49 49 49 48 40 37 37 44 58 76 83 81 87 90 74 76 77 82 80 78 77 78 79 81 84 86 86 82 75 73 74 73 71 69
65 62 61 59 59 57 54 53 52 52 51 50 49 48 44 37 38 40 42 44 65 81 93 94 88 84 69 71 73 76 76 77 82 86 89 88 87 82 78 78 78 77 75
63 63 62 64 62 61 62 62 60 57 53 52 50 48 47 49 45 43 40 39 45 47 66 86 95 86 89 98 100 99 86 78 81 86 91 93 93 88 83 81 83 83 81
66 64 66 63 63 65 67 71 67 63 61 59 58 54 46 46 49 51 49 44 42 45 44 50 60 67 91 99 98 86 105 94 84 85 89 95 94 98 90 88 86 87 87
59 58 56 56 59 61 66 69 67 67 66 65 62 60 62 55 49 48 49 52 51 54 60 61 63 72 82 91 86 87 90 118 103 101 91 81 93 97 99 96 88 86 90
47 43 44 47 51 56 59 62 62 68 67 64 63 65 66 64 61 57 53 55 61 63 55 51 59 46 67 88 91 87 86 85 90 96 92 74 77 92 94 102 100 90 86
39 39 43 48 53 56 59 59 62 67 70 69 68 64 63 63 60 59 60 59 63 66 64 60 62 71 71 62 65 81 90 79 80 96 87 82 76 75 86 93 99 101 91
38 40 42 43 49 54 60 66 68 70 64 59 59 66 70 67 62 61 58 58 65 65 65 63 65 65 81 76 80 72 86 80 82 95 89 95 79 70 72 82 88 91 91
43 42 43 48 56 61 62 62 62 64 62 56 53 58 66 74 63 53 53 58 62 63 62 62 62 63 66 63 67 53 68 70 72 81 72 75 70 71 69 71 82 84 82
51 52 53 53 53 55 59 63 68 70 69 71 72 68 63 63 62 57 53 50 53 59 60 62 61 52 60 64 55 39 28 49 56 49 51 60 57 61 70 72 72 82 82
51 45 45 48 53 58 65 71 75 81 76 73 72 69 60 61 56 57 59 56 52 50 55 57 57 53 46 57 61 63 50 61 26 34 36 49 58 80 71 68 66 65 64
51 55 59 60 59 60 68 73 76 75 67 67 69 69 69 64 60 56 57 56 52 51 54 52 55 47 41 42 45 52 65 69 79 59 49 60 48 65 64 68 82 68 58
55 56 56 57 62 70 74 70 73 74 70 69 69 70 69 67 66 62 58 54 50 53 52 50 47 37 33 30 33 30 28 28 38 26 37 65 75 70 52 78 79 76 72
Wind_Direction_850mb
194 188 186 184 183 186 188 190 197 196 190 188 190 194 200 209 200 216 222 189 180 184 186 183 185 186 191 196 206 191 191 194 189 171 162 159 154 153 150 147 148 146 148
193 188 184 189 188 189 192 194 206 209 208 210 215 221 225 220 223 233 225 206 200 197 196 195 195 203 208 215 217 211 202 195 192 175 166 164 160 158 157 158 155 159 162
225 191 185 193 201 201 210 216 226 225 222 221 225 231 232 229 230 230 222 217 217 216 214 214 217 219 222 221 223 222 210 199 192 182 174 169 169 164 164 169 170 169 166
359 204 190 191 202 208 215 224 236 239 235 232 230 229 228 229 233 234 236 238 237 233 229 228 229 230 226 224 221 217 211 206 196 186 178 172 169 166 163 167 171 178 179
5 212 201 195 204 215 226 236 242 246 245 240 235 234 234 236 239 244 250 253 252 249 243 240 239 238 232 227 221 215 210 204 200 189 182 178 172 171 167 164 169 177 182
2 216 211 212 212 220 228 240 252 267 267 259 251 248 252 257 260 263 265 264 262 260 258 255 250 247 241 234 228 221 213 207 200 200 198 193 183 174 169 169 170 174 181
3 217 230 240 235 233 236 242 253 263 269 272 271 267 264 263 265 268 271 272 270 268 267 266 264 259 254 246 238 233 227 219 216 216 216 216 207 200 194 190 184 180 179
43 338 274 262 256 252 249 250 254 258 264 270 273 272 273 272 270 270 270 270 273 273 271 269 267 265 262 260 252 244 237 232 230 230 232 231 228 222 220 212 201 197 193
42 4 310 299 297 286 281 274 267 265 266 267 269 272 275 274 275 275 273 273 273 274 273 271 269 267 263 260 258 254 248 243 242 241 240 240 237 234 233 229 223 216 210
33 19 13 358 320 283 270 270 270 269 269 270 272 273 274 273 277 279 280 282 282 279 277 274 272 268 266 262 259 257 254 251 249 249 247 244 241 239 238 238 236 232 226
51 48 42 34 17 357 334 309 292 283 277 273 272 274 274 275 278 279 284 286 282 280 283 282 279 275 270 266 261 258 257 254 253 253 251 250 247 245 242 240 241 240 238
53 51 49 49 49 46 42 33 11 336 314 296 285 279 279 278 279 272 269 287 287 282 278 282 279 278 277 272 268 263 259 258 259 258 258 255 251 249 248 246 244 245 244
55 51 48 45 44 43 42 42 40 34 28 16 353 313 286 280 280 277 279 277 271 267 276 276 279 278 275 276 274 271 268 266 263 264 261 261 257 253 253 250 248 248 246
47 44 40 36 33 30 26 23 18 14 10 7 5 359 347 330 305 286 280 272 268 264 269 273 267 271 272 270 270 269 268 267 267 266 266 265 262 258 255 254 252 250 249
38 33 30 26 24 20 16 11 7 4 1 357 352 347 341 335 331 309 291 295 276 266 266 271 274 278 272 268 268 269 268 269 270 268 268 264 265 262 258 256 255 253 251
30 30 28 27 24 20 17 12 7 3 358 351 346 342 333 325 320 310 303 290 286 286 272 274 274 275 284 271 272 269 266 269 278 271 268 267 266 262 260 258 256 254 251
25 24 23 23 20 15 14 12 11 8 3 357 351 346 334 322 320 314 305 298 288 272 274 278 277 269 258 268 269 266 265 267 273 283 270 266 265 267 261 256 254 254 253
22 20 17 15 12 11 8 6 4 1 356 353 347 341 335 334 325 316 311 303 289 272 267 261 269 281 255 264 263 269 261 264 270 269 274 265 260 261 264 261 255 252 251
12 11 8 6 4 1 2 0 359 355 353 351 347 344 336 332 330 326 321 314 307 301 295 275 263 266 269 268 272 270 257 258 262 262 268 272 265 258 259 260 258 252 250
3 0 357 354 353 353 353 353 351 352 349 347 345 344 342 334 331 328 325 320 318 311 303 296 284 269 263 262 277 258 259 267 264 256 254 271 272 265 255 252 255 253 248
354 351 346 345 348 350 351 353 355 354 351 347 345 342 341 344 334 328 325 323 322 319 311 307 303 298 275 267 268 280 270 268 260 256 252 257 271 267 263 255 250 250 249
347 342 344 348 349 348 350 352 352 350 347 346 345 344 338 336 340 328 324 327 328 322 312 304 299 299 291 278 276 276 273 265 259 254 253 253 265 264 263 267 256 247 246
346 346 345 345 343 344 348 351 350 348 346 344 344 345 344 342 344 339 327 325 325 321 314 306 301 298 296 282 272 261 277 246 268 258 251 252 260 260 266 268 262 248 240
348 338 337 342 346 353 355 354 352 352 350 349 348 350 351 355 350 345 340 335 329 324 319 316 307 297 300 293 278 265 249 259 276 247 233 249 257 260 257 262 262 256 246
341 343 349 354 356 358 355 353 351 353 353 353 352 353 357 357 355 351 345 340 335 331 326 319 313 306 298 293 291 286 275 270 253 276 262 268 264 268 250 258 263 253 257
358 351 356 360 357 353 353 355 357 357 356 358 358 359 358 358 357 357 353 350 346 341 339 332 324 315 309 302 299 298 292 285 268 284 263 249 237 241 252 251 258 265 265